Aberdeen, United Kingdom

12:38 PM GMT on January 18, 2017 (GMT +0000)
Dyce

Weather History for EGPD - November, 2013

Change the Weather History Date:

Tuesday, November 5, 2013

  Actual Average Record
Temperature  
Mean Temperature 36 °F -  
Max Temperature 45 °F 46 °F 59 °F (2003)
Min Temperature 28 °F 35 °F 28 °F (2013)
Degree Days  
Heating Degree Days 28    
Moisture  
Dew Point 33 °F    
Average Humidity 89    
Maximum Humidity 100    
Minimum Humidity 61    
Precipitation  
Precipitation 0.01 in 0.10 in - ()
Sea Level Pressure  
Sea Level Pressure 29.17 in    
Wind  
Wind Speed 3 mph ()    
Max Wind Speed 9 mph    
Max Gust Speed -    
Visibility 7.3 miles    
Events Rain    
Averages and records for this station are not official NWS values.
T = Trace of Precipitation, MM = Missing Value Source: Averaged Metar Reports

Daily Weather History Graph

Daily Weather History Graph

Search for Another Location

Airport or City:

Trip Planner

Search our weather history database for the weather conditions in past years. The results will help you decide how hot, cold, wet, or windy it might be!

Date:

Astronomy

Nov. 05, 2013 Rise Set
Actual Time 7:29 AM GMT 4:14 PM GMT
Civil Twilight 6:47 AM GMT 4:56 PM GMT
Nautical Twilight 6:01 AM GMT 5:42 PM GMT
Astronomical Twilight 5:16 AM GMT 6:27 PM GMT
Moon 9:47 AM GMT (11/5) 5:42 PM GMT (11/5)
Length of Visible Light 10h 09m
Length of Day
8h 45m
Waxing Crescent, 5% of the Moon is Illuminated
Nov 5
Waxing Crescent
Nov 10
First Quarter
Nov 17
Full
Nov 25
Last Quarter
Dec 3
New

Hourly Weather History & Observations

Time (GMT) Temp. Windchill Dew Point Humidity Pressure Visibility Wind Dir Wind Speed Gust Speed Precip Events Conditions
12:00 AM 38 °F - 35 °F 84% 29.31 in 18 mi WNW 5.8 mph - -   Partly Cloudy
12:20 AM 33.8 °F - 33.8 °F 100% 29.30 in 6.2 mi Variable 2.3 mph - N/A   Partly Cloudy
12:50 AM 35.6 °F 32.8 °F 33.8 °F 93% 29.30 in 6.2 mi Variable 3.5 mph - N/A   Unknown
1:20 AM 33.8 °F 28.6 °F 32.0 °F 93% 29.27 in - WNW 5.8 mph - N/A   Clear
1:50 AM 33.8 °F 28.6 °F 33.8 °F 100% 29.27 in 6.2 mi West 5.8 mph - N/A   Unknown
2:20 AM 32.0 °F - 30.2 °F 93% 29.27 in 6.2 mi Calm Calm - N/A   Unknown
2:50 AM 32.0 °F - 30.2 °F 93% 29.24 in 6.2 mi Calm Calm - N/A   Unknown
3:00 AM 31 °F - 30 °F 95% 29.27 in 12 mi SW 1.2 mph - -  
3:20 AM 30.2 °F 26.7 °F 30.2 °F 100% 29.24 in 1.8 mi Variable 3.5 mph - N/A   Partly Cloudy
3:50 AM 30.2 °F - 30.2 °F 100% 29.24 in 6.2 mi Calm Calm - N/A   Mostly Cloudy
4:20 AM 30.2 °F - 30.2 °F 100% 29.24 in 5.0 mi Calm Calm - N/A   Mostly Cloudy
4:50 AM 30.2 °F - 30.2 °F 100% 29.24 in 6.2 mi NNW 2.3 mph - N/A   Mostly Cloudy
5:20 AM 30.2 °F 26.7 °F 30.2 °F 100% 29.21 in 6.2 mi Variable 3.5 mph - N/A   Scattered Clouds
5:50 AM 30.2 °F - 30.2 °F 100% 29.21 in - NW 2.3 mph - N/A   Clear
6:00 AM 30 °F - 30 °F 98% 29.23 in 12 mi NNW 1.2 mph - -  
6:20 AM 30.2 °F - 30.2 °F 100% 29.21 in - Calm Calm - N/A   Clear
6:50 AM 28.4 °F 24.6 °F 28.4 °F 100% 29.21 in 5.6 mi North 3.5 mph - N/A   Unknown
7:20 AM 28.4 °F - 28.4 °F 100% 29.21 in - Calm Calm - N/A   Clear
7:50 AM 28.4 °F - 28.4 °F 100% 29.21 in 6.2 mi Calm Calm - N/A   Partly Cloudy
8:20 AM 28.4 °F - 28.4 °F 100% 29.21 in 6.2 mi NNW 2.3 mph - N/A   Scattered Clouds
8:50 AM 28.4 °F - 28.4 °F 100% 29.21 in 6.2 mi Calm Calm - N/A   Scattered Clouds
9:00 AM 29 °F - 28 °F 95% 29.21 in 7 mi North 2.3 mph - -   Scattered Clouds
9:20 AM 30.2 °F - 30.2 °F 100% 29.18 in 6.2 mi Variable 2.3 mph - N/A   Mostly Cloudy
9:50 AM 33.8 °F 30.8 °F 32.0 °F 93% 29.18 in 6.2 mi Variable 3.5 mph - N/A   Mostly Cloudy
10:20 AM 33.8 °F 29.6 °F 33.8 °F 100% 29.18 in 6.2 mi North 4.6 mph - N/A   Scattered Clouds
10:50 AM 35.6 °F - 35.6 °F 100% 29.18 in 6.2 mi Calm Calm - N/A   Scattered Clouds
11:20 AM 39.2 °F - 37.4 °F 93% 29.15 in 6.2 mi Calm Calm - N/A   Scattered Clouds
11:50 AM 41.0 °F - 37.4 °F 87% 29.15 in - Calm Calm - N/A   Clear
12:00 PM 42 °F - 37 °F 75% 29.17 in 14 mi East 2.3 mph - -  
12:20 PM 44.6 °F 41.4 °F 37.4 °F 76% 29.15 in 6.2 mi SSW 5.8 mph - N/A   Partly Cloudy
12:50 PM 44.6 °F 40.7 °F 35.6 °F 71% 29.15 in 6.2 mi SSW 6.9 mph - N/A   Partly Cloudy
1:20 PM 44.6 °F 40.7 °F 35.6 °F 71% 29.15 in 6.2 mi SSW 6.9 mph - N/A   Partly Cloudy
1:50 PM 44.6 °F 42.2 °F 33.8 °F 66% 29.12 in 6.2 mi SSW 4.6 mph - N/A   Partly Cloudy
2:20 PM 42.8 °F 39.3 °F 33.8 °F 70% 29.12 in 6.2 mi SSW 5.8 mph - N/A   Partly Cloudy
2:50 PM 39.2 °F 35.0 °F 33.8 °F 81% 29.12 in - SSW 5.8 mph - N/A   Clear
3:00 PM 42 °F - 33 °F 61% 29.13 in 28 mi SSW 9.2 mph - -   Scattered Clouds
3:20 PM 39.2 °F 35.9 °F 33.8 °F 81% 29.12 in - South 4.6 mph - N/A   Clear
3:50 PM 39.2 °F 34.2 °F 33.8 °F 81% 29.12 in - SSW 6.9 mph - N/A   Clear
4:20 PM 41.0 °F 35.8 °F 33.8 °F 76% 29.09 in - SW 8.1 mph - N/A   Clear
4:50 PM 41.0 °F 36.4 °F 33.8 °F 76% 29.09 in 6.2 mi SSW 6.9 mph - N/A   Partly Cloudy
5:20 PM 39.2 °F 34.2 °F 33.8 °F 81% 29.09 in 6.2 mi SSW 6.9 mph - N/A   Partly Cloudy
5:50 PM 39.2 °F 35.9 °F 33.8 °F 81% 29.09 in - SW 4.6 mph - N/A   Clear
6:00 PM 39 °F - 34 °F 76% 29.11 in 17 mi SW 9.2 mph - -   Partly Cloudy
6:20 PM 39.2 °F 34.2 °F 35.6 °F 87% 29.09 in 6.2 mi WSW 6.9 mph - N/A   Partly Cloudy
6:50 PM 41.0 °F 36.4 °F 37.4 °F 87% 29.09 in 6.2 mi WSW 6.9 mph - N/A Rain Light Rain
7:20 PM 39.2 °F 37.0 °F 37.4 °F 93% 29.09 in 6.2 mi Variable 3.5 mph - N/A Rain Light Rain
7:50 PM 39.2 °F 37.0 °F 37.4 °F 93% 29.09 in 6.2 mi WSW 3.5 mph - N/A   Partly Cloudy
8:20 PM 39.2 °F 37.0 °F 37.4 °F 93% 29.09 in 6.2 mi Variable 3.5 mph - N/A   Partly Cloudy
8:50 PM 39.2 °F 35.0 °F 35.6 °F 87% 29.12 in 6.2 mi SW 5.8 mph - N/A   Partly Cloudy
9:00 PM 40 °F - 35 °F 77% 29.12 in 12 mi WSW 8.1 mph - -   Mostly Cloudy
9:20 PM 37.4 °F 32.8 °F 33.8 °F 87% 29.12 in - WSW 5.8 mph - N/A   Clear
9:50 PM 35.6 °F 30.7 °F 33.8 °F 93% 29.12 in - WSW 5.8 mph - N/A   Clear
10:20 PM 35.6 °F 29.9 °F 32.0 °F 87% 29.12 in - WSW 6.9 mph - N/A   Clear
10:50 PM 35.6 °F 30.7 °F 32.0 °F 87% 29.12 in - WSW 5.8 mph - N/A   Clear
11:20 PM 33.8 °F 28.6 °F 32.0 °F 93% 29.12 in - SSE 5.8 mph - N/A   Clear
11:50 PM 35.6 °F 31.7 °F 32.0 °F 87% 29.12 in 6.2 mi SSE 4.6 mph - N/A   Unknown